User: anonymous   Login
Location: Casaglia
(44.0333°N, 11.5167°E)
Time: 12:14:04
(UTC+00:00)
Language:

FALCON 9 DEB - Orbit

View from above orbital plane
View from above orbital plane
View from above satellite
View from above satellite

Ground track
Ground track

The orbit data is extracted from the following two-line orbital elements,

1 44295U 19029BN  20227.11620054  .00001558  00000-0  42955-4 0  9995
2 44295  53.0014 205.5725 0007867 247.2784 112.7389 15.43880425 70409
Epoch (UTC): 14 August 2020 02:47:19
Eccentricity: 0.0007867
inclination: 53.0014°
perigee height: 429 km
apogee height: 440 km
right ascension of ascending node: 205.5725°
argument of perigee: 247.2784°
revolutions per day: 15.43880425
mean anomaly at epoch: 112.7389°
orbit number at epoch: 7040

The dashed part of the orbit path shows where the satellite is in the earth's shadow,  

DLR